QPF
0.01 0.00 0.00 0.00 0.00 0.01 0.01 0.01 0.02 0.02 0.02 0.03 0.01 0.01 0.01 0.00 0.00 0.00 0.01 0.01 0.00 0.00 0.00 0.00 0.00 0.00 0.01 0.01 0.01 0.01 0.01 0.01 0.00 0.00 0.00 0.00 0.00 0.00 0.00 0.00 0.00 0.00 0.00 0.00
0.01 0.01 0.00 0.00 0.01 0.00 0.01 0.01 0.02 0.02 0.02 0.02 0.01 0.01 0.01 0.00 0.00 0.00 0.01 0.00 0.00 0.00 0.00 0.00 0.00 0.01 0.01 0.01 0.01 0.01 0.01 0.01 0.00 0.00 0.00 0.00 0.00 0.00 0.00 0.00 0.00 0.00 0.00 0.00
0.03 0.01 0.01 0.02 0.02 0.01 0.01 0.01 0.02 0.02 0.02 0.02 0.02 0.01 0.01 0.01 0.00 0.01 0.01 0.00 0.00 0.00 0.00 0.00 0.00 0.00 0.01 0.01 0.01 0.00 0.01 0.01 0.01 0.00 0.00 0.00 0.00 0.00 0.00 0.00 0.00 0.00 0.00 0.00
0.03 0.03 0.05 0.04 0.02 0.01 0.01 0.02 0.02 0.01 0.01 0.01 0.01 0.01 0.01 0.01 0.01 0.01 0.01 0.01 0.00 0.00 0.00 0.00 0.00 0.00 0.01 0.01 0.01 0.01 0.00 0.01 0.00 0.00 0.00 0.00 0.00 0.00 0.00 0.00 0.00 0.00 0.00 0.00
0.04 0.04 0.03 0.02 0.01 0.02 0.01 0.02 0.01 0.01 0.01 0.00 0.00 0.01 0.02 0.01 0.01 0.01 0.01 0.01 0.01 0.00 0.00 0.00 0.00 0.01 0.01 0.01 0.01 0.01 0.01 0.00 0.00 0.00 0.00 0.00 0.00 0.00 0.00 0.00 0.00 0.00 0.00 0.00
0.04 0.04 0.03 0.02 0.01 0.01 0.01 0.02 0.01 0.01 0.01 0.01 0.01 0.02 0.03 0.02 0.01 0.02 0.02 0.01 0.01 0.01 0.01 0.01 0.01 0.01 0.02 0.02 0.01 0.01 0.01 0.01 0.01 0.01 0.01 0.01 0.00 0.00 0.00 0.00 0.00 0.00 0.01 0.01
0.03 0.03 0.02 0.01 0.00 0.01 0.02 0.03 0.02 0.02 0.01 0.01 0.02 0.02 0.02 0.01 0.02 0.01 0.02 0.02 0.02 0.01 0.01 0.01 0.01 0.01 0.02 0.02 0.02 0.01 0.01 0.01 0.01 0.01 0.01 0.01 0.01 0.01 0.01 0.01 0.01 0.01 0.01 0.01
0.03 0.03 0.02 0.01 0.01 0.02 0.02 0.01 0.02 0.02 0.02 0.02 0.02 0.01 0.01 0.01 0.01 0.01 0.01 0.01 0.01 0.02 0.02 0.02 0.02 0.02 0.02 0.02 0.02 0.01 0.01 0.01 0.01 0.01 0.01 0.02 0.02 0.02 0.02 0.02 0.02 0.01 0.01 0.01
0.02 0.03 0.03 0.02 0.02 0.02 0.01 0.01 0.01 0.02 0.02 0.02 0.02 0.02 0.01 0.01 0.01 0.01 0.02 0.02 0.02 0.02 0.02 0.02 0.03 0.02 0.02 0.02 0.02 0.01 0.01 0.01 0.01 0.01 0.01 0.02 0.02 0.03 0.03 0.02 0.02 0.01 0.01 0.01
0.02 0.02 0.02 0.02 0.02 0.02 0.02 0.02 0.02 0.02 0.02 0.02 0.02 0.02 0.02 0.01 0.02 0.02 0.02 0.02 0.01 0.02 0.02 0.03 0.03 0.03 0.02 0.02 0.01 0.01 0.01 0.01 0.01 0.01 0.01 0.02 0.03 0.03 0.03 0.04 0.03 0.02 0.02 0.01
0.01 0.02 0.01 0.01 0.02 0.02 0.02 0.02 0.02 0.02 0.03 0.03 0.02 0.02 0.02 0.02 0.02 0.02 0.02 0.02 0.02 0.02 0.02 0.03 0.03 0.03 0.03 0.02 0.01 0.01 0.01 0.01 0.01 0.02 0.02 0.03 0.03 0.03 0.03 0.04 0.04 0.03 0.03 0.02
0.01 0.01 0.01 0.01 0.01 0.01 0.01 0.02 0.02 0.02 0.02 0.02 0.02 0.02 0.02 0.02 0.02 0.02 0.02 0.02 0.02 0.02 0.02 0.03 0.03 0.03 0.03 0.02 0.01 0.01 0.01 0.01 0.01 0.02 0.02 0.02 0.02 0.02 0.03 0.03 0.03 0.03 0.03 0.03
0.01 0.01 0.01 0.01 0.01 0.01 0.01 0.01 0.01 0.01 0.02 0.02 0.02 0.02 0.01 0.01 0.01 0.02 0.02 0.02 0.02 0.02 0.02 0.03 0.02 0.03 0.03 0.03 0.02 0.01 0.01 0.01 0.01 0.02 0.02 0.02 0.02 0.02 0.02 0.02 0.02 0.02 0.02 0.02
0.01 0.01 0.01 0.00 0.01 0.01 0.01 0.01 0.01 0.01 0.02 0.02 0.02 0.02 0.01 0.01 0.01 0.02 0.02 0.02 0.02 0.02 0.02 0.03 0.02 0.03 0.03 0.03 0.02 0.01 0.01 0.02 0.02 0.02 0.02 0.02 0.02 0.02 0.01 0.01 0.01 0.01 0.01 0.01
0.01 0.01 0.01 0.01 0.00 0.00 0.01 0.01 0.01 0.01 0.01 0.02 0.02 0.02 0.02 0.02 0.02 0.02 0.02 0.02 0.02 0.02 0.02 0.02 0.03 0.03 0.03 0.02 0.02 0.01 0.01 0.02 0.02 0.02 0.02 0.02 0.03 0.02 0.02 0.02 0.01 0.02 0.02 0.02
0.01 0.01 0.01 0.01 0.01 0.01 0.01 0.01 0.01 0.01 0.02 0.02 0.02 0.02 0.02 0.03 0.03 0.02 0.02 0.02 0.02 0.02 0.02 0.02 0.03 0.03 0.03 0.02 0.01 0.01 0.02 0.02 0.02 0.02 0.02 0.03 0.02 0.02 0.02 0.02 0.02 0.02 0.02 0.02
0.01 0.01 0.01 0.01 0.01 0.01 0.01 0.01 0.01 0.02 0.02 0.02 0.03 0.02 0.02 0.02 0.02 0.02 0.02 0.02 0.02 0.02 0.02 0.02 0.02 0.03 0.03 0.02 0.01 0.01 0.02 0.02 0.02 0.02 0.02 0.02 0.02 0.02 0.02 0.02 0.03 0.03 0.03 0.02
0.01 0.01 0.01 0.01 0.01 0.01 0.01 0.02 0.02 0.02 0.02 0.03 0.02 0.02 0.02 0.02 0.02 0.02 0.02 0.02 0.02 0.02 0.02 0.02 0.02 0.02 0.02 0.02 0.01 0.02 0.02 0.02 0.02 0.02 0.02 0.02 0.02 0.02 0.02 0.02 0.03 0.03 0.03 0.03
0.01 0.01 0.01 0.01 0.01 0.01 0.01 0.01 0.02 0.02 0.02 0.02 0.02 0.02 0.02 0.02 0.02 0.02 0.02 0.02 0.02 0.02 0.02 0.02 0.02 0.02 0.03 0.02 0.02 0.02 0.02 0.02 0.02 0.01 0.01 0.02 0.02 0.02 0.02 0.02 0.03 0.03 0.03 0.03
0.00 0.01 0.01 0.01 0.01 0.01 0.01 0.01 0.02 0.02 0.02 0.02 0.02 0.02 0.02 0.02 0.02 0.02 0.02 0.02 0.02 0.02 0.02 0.02 0.02 0.02 0.02 0.02 0.01 0.02 0.01 0.01 0.02 0.02 0.02 0.02 0.02 0.02 0.02 0.02 0.02 0.03 0.03 0.03
0.00 0.00 0.01 0.01 0.01 0.01 0.01 0.01 0.01 0.01 0.02 0.02 0.01 0.02 0.02 0.02 0.02 0.02 0.02 0.02 0.02 0.02 0.01 0.01 0.01 0.02 0.02 0.02 0.02 0.02 0.02 0.02 0.02 0.02 0.02 0.02 0.02 0.02 0.02 0.02 0.02 0.02 0.02 0.02
0.01 0.01 0.01 0.01 0.01 0.01 0.01 0.01 0.01 0.01 0.01 0.01 0.01 0.01 0.02 0.02 0.02 0.02 0.01 0.01 0.02 0.02 0.01 0.01 0.01 0.01 0.01 0.01 0.01 0.01 0.02 0.02 0.02 0.02 0.02 0.02 0.02 0.02 0.02 0.02 0.02 0.02 0.02 0.02
0.01 0.01 0.01 0.01 0.01 0.01 0.01 0.01 0.01 0.01 0.01 0.01 0.01 0.01 0.01 0.02 0.02 0.01 0.01 0.01 0.01 0.01 0.01 0.02 0.02 0.01 0.01 0.01 0.01 0.01 0.01 0.01 0.02 0.02 0.02 0.02 0.02 0.02 0.02 0.02 0.02 0.02 0.02 0.01
0.01 0.01 0.01 0.01 0.01 0.01 0.01 0.01 0.01 0.01 0.01 0.01 0.01 0.01 0.01 0.01 0.02 0.02 0.01 0.01 0.01 0.01 0.01 0.01 0.01 0.01 0.01 0.01 0.01 0.01 0.01 0.01 0.01 0.01 0.02 0.02 0.02 0.02 0.02 0.02 0.02 0.02 0.01 0.01
0.01 0.01 0.01 0.01 0.00 0.00 0.01 0.01 0.01 0.01 0.01 0.01 0.01 0.01 0.01 0.01 0.02 0.02 0.02 0.01 0.01 0.01 0.01 0.01 0.01 0.00 0.00 0.01 0.01 0.01 0.01 0.01 0.01 0.02 0.02 0.02 0.02 0.02 0.02 0.02 0.01 0.01 0.01 0.01
0.01 0.00 0.00 0.00 0.00 0.00 0.01 0.01 0.01 0.01 0.01 0.01 0.01 0.01 0.01 0.01 0.01 0.01 0.01 0.01 0.01 0.01 0.01 0.01 0.01 0.01 0.00 0.01 0.01 0.01 0.01 0.01 0.02 0.02 0.02 0.02 0.02 0.02 0.01 0.01 0.01 0.01 0.01 0.01
0.01 0.00 0.00 0.00 0.00 0.00 0.00 0.01 0.01 0.01 0.01 0.01 0.01 0.01 0.01 0.01 0.01 0.01 0.01 0.01 0.01 0.01 0.01 0.01 0.01 0.01 0.01 0.01 0.01 0.01 0.01 0.01 0.02 0.02 0.01 0.01 0.01 0.01 0.01 0.01 0.01 0.01 0.01 0.02
MSLP
1005.18 1004.14 1003.32 1002.74 1002.40 1002.29 1002.38 1002.65 1003.09 1003.67 1004.38 1005.20 1006.11 1007.06 1008.02 1008.93 1009.74 1010.42 1010.93 1011.28 1011.47 1011.55 1011.57 1011.57 1011.61 1011.73 1011.94 1012.23 1012.58 1012.96 1013.33 1013.65 1013.91 1014.11 1014.27 1014.41 1014.57 1014.78 1015.07 1015.43 1015.86 1016.34 1016.83 1017.28
1006.09 1005.12 1004.33 1003.75 1003.37 1003.19 1003.21 1003.40 1003.76 1004.27 1004.93 1005.71 1006.58 1007.50 1008.44 1009.33 1010.15 1010.84 1011.39 1011.80 1012.07 1012.25 1012.38 1012.49 1012.64 1012.84 1013.10 1013.41 1013.75 1014.08 1014.38 1014.62 1014.79 1014.91 1014.99 1015.07 1015.18 1015.35 1015.60 1015.93 1016.32 1016.75 1017.18 1017.58
1007.11 1006.26 1005.55 1004.98 1004.58 1004.34 1004.26 1004.35 1004.60 1005.01 1005.58 1006.28 1007.10 1007.98 1008.89 1009.78 1010.61 1011.34 1011.94 1012.42 1012.78 1013.06 1013.28 1013.49 1013.71 1013.96 1014.25 1014.55 1014.86 1015.14 1015.37 1015.53 1015.64 1015.70 1015.73 1015.78 1015.87 1016.02 1016.25 1016.56 1016.92 1017.31 1017.69 1018.03
1008.20 1007.50 1006.88 1006.35 1005.94 1005.65 1005.48 1005.46 1005.60 1005.90 1006.36 1006.98 1007.73 1008.57 1009.46 1010.35 1011.20 1011.97 1012.63 1013.17 1013.61 1013.96 1014.26 1014.52 1014.78 1015.05 1015.33 1015.60 1015.86 1016.09 1016.26 1016.38 1016.44 1016.47 1016.49 1016.53 1016.62 1016.77 1017.00 1017.29 1017.63 1017.98 1018.31 1018.59
1009.33 1008.77 1008.25 1007.78 1007.37 1007.03 1006.79 1006.67 1006.70 1006.89 1007.26 1007.80 1008.49 1009.30 1010.18 1011.07 1011.94 1012.74 1013.45 1014.05 1014.53 1014.93 1015.26 1015.54 1015.81 1016.06 1016.31 1016.55 1016.77 1016.94 1017.08 1017.16 1017.21 1017.24 1017.27 1017.32 1017.43 1017.60 1017.83 1018.11 1018.42 1018.73 1019.01 1019.24
1010.45 1010.02 1009.60 1009.17 1008.77 1008.40 1008.10 1007.90 1007.85 1007.96 1008.25 1008.73 1009.38 1010.16 1011.02 1011.93 1012.81 1013.64 1014.37 1014.99 1015.50 1015.91 1016.25 1016.53 1016.77 1017.00 1017.21 1017.41 1017.58 1017.73 1017.84 1017.92 1017.98 1018.02 1018.08 1018.16 1018.29 1018.47 1018.70 1018.97 1019.25 1019.52 1019.75 1019.92
1011.56 1011.22 1010.87 1010.48 1010.07 1009.68 1009.34 1009.10 1008.98 1009.04 1009.28 1009.72 1010.34 1011.10 1011.96 1012.86 1013.76 1014.59 1015.33 1015.95 1016.46 1016.86 1017.18 1017.44 1017.65 1017.85 1018.03 1018.19 1018.35 1018.48 1018.60 1018.69 1018.77 1018.84 1018.93 1019.04 1019.18 1019.37 1019.59 1019.83 1020.08 1020.30 1020.48 1020.61
1012.63 1012.35 1012.03 1011.66 1011.26 1010.85 1010.48 1010.20 1010.05 1010.07 1010.29 1010.71 1011.31 1012.07 1012.92 1013.82 1014.71 1015.53 1016.26 1016.87 1017.37 1017.75 1018.04 1018.27 1018.46 1018.62 1018.78 1018.94 1019.09 1019.23 1019.36 1019.48 1019.59 1019.69 1019.80 1019.93 1020.08 1020.26 1020.46 1020.66 1020.87 1021.04 1021.18 1021.26
1013.67 1013.42 1013.11 1012.74 1012.32 1011.90 1011.51 1011.21 1011.04 1011.05 1011.25 1011.66 1012.26 1013.01 1013.85 1014.73 1015.60 1016.41 1017.12 1017.71 1018.18 1018.53 1018.80 1019.01 1019.18 1019.34 1019.50 1019.66 1019.82 1019.98 1020.14 1020.28 1020.42 1020.54 1020.66 1020.79 1020.93 1021.08 1021.25 1021.41 1021.57 1021.70 1021.80 1021.84
1014.71 1014.46 1014.13 1013.74 1013.30 1012.86 1012.45 1012.14 1011.97 1011.97 1012.17 1012.57 1013.16 1013.89 1014.72 1015.58 1016.42 1017.20 1017.88 1018.44 1018.88 1019.22 1019.48 1019.68 1019.85 1020.01 1020.17 1020.35 1020.54 1020.72 1020.90 1021.07 1021.21 1021.35 1021.47 1021.58 1021.69 1021.81 1021.92 1022.04 1022.15 1022.25 1022.31 1022.33
1015.78 1015.51 1015.16 1014.74 1014.28 1013.81 1013.39 1013.06 1012.87 1012.87 1013.06 1013.45 1014.03 1014.73 1015.53 1016.35 1017.16 1017.90 1018.54 1019.07 1019.49 1019.82 1020.07 1020.27 1020.45 1020.63 1020.81 1021.01 1021.21 1021.42 1021.61 1021.78 1021.93 1022.05 1022.15 1022.24 1022.31 1022.38 1022.45 1022.53 1022.60 1022.66 1022.70 1022.71
1016.91 1016.63 1016.26 1015.81 1015.32 1014.83 1014.38 1014.04 1013.85 1013.83 1014.00 1014.37 1014.91 1015.57 1016.32 1017.09 1017.85 1018.54 1019.14 1019.63 1020.03 1020.34 1020.59 1020.80 1020.99 1021.19 1021.39 1021.60 1021.82 1022.03 1022.22 1022.39 1022.53 1022.63 1022.69 1022.74 1022.77 1022.80 1022.83 1022.86 1022.90 1022.93 1022.95 1022.96
1018.12 1017.84 1017.46 1016.99 1016.48 1015.97 1015.51 1015.15 1014.94 1014.90 1015.05 1015.37 1015.86 1016.47 1017.15 1017.85 1018.54 1019.16 1019.71 1020.17 1020.53 1020.82 1021.06 1021.27 1021.47 1021.67 1021.88 1022.10 1022.32 1022.53 1022.71 1022.86 1022.97 1023.04 1023.08 1023.08 1023.08 1023.06 1023.06 1023.06 1023.07 1023.08 1023.09 1023.09
1019.41 1019.14 1018.76 1018.29 1017.78 1017.26 1016.79 1016.42 1016.19 1016.13 1016.23 1016.51 1016.93 1017.46 1018.06 1018.67 1019.27 1019.82 1020.29 1020.69 1021.01 1021.27 1021.49 1021.69 1021.88 1022.08 1022.28 1022.49 1022.70 1022.89 1023.06 1023.18 1023.27 1023.31 1023.32 1023.29 1023.26 1023.21 1023.18 1023.15 1023.14 1023.14 1023.13 1023.12
1020.72 1020.48 1020.12 1019.67 1019.17 1018.66 1018.20 1017.83 1017.59 1017.50 1017.56 1017.78 1018.13 1018.57 1019.06 1019.57 1020.06 1020.51 1020.90 1021.22 1021.48 1021.69 1021.87 1022.04 1022.21 1022.38 1022.57 1022.76 1022.95 1023.12 1023.26 1023.37 1023.44 1023.46 1023.45 1023.40 1023.35 1023.28 1023.23 1023.18 1023.14 1023.12 1023.10 1023.07
1021.98 1021.79 1021.47 1021.06 1020.59 1020.12 1019.68 1019.32 1019.07 1018.96 1018.99 1019.14 1019.40 1019.74 1020.13 1020.52 1020.89 1021.23 1021.51 1021.74 1021.92 1022.07 1022.20 1022.32 1022.45 1022.59 1022.75 1022.92 1023.08 1023.23 1023.36 1023.45 1023.50 1023.52 1023.50 1023.45 1023.38 1023.30 1023.23 1023.16 1023.10 1023.05 1023.00 1022.94
1023.11 1022.97 1022.71 1022.35 1021.94 1021.51 1021.11 1020.78 1020.54 1020.42 1020.41 1020.50 1020.68 1020.92 1021.19 1021.47 1021.72 1021.93 1022.10 1022.23 1022.32 1022.39 1022.45 1022.52 1022.60 1022.71 1022.83 1022.97 1023.11 1023.25 1023.36 1023.45 1023.50 1023.51 1023.49 1023.44 1023.37 1023.28 1023.20 1023.11 1023.02 1022.93 1022.84 1022.75
1024.04 1023.95 1023.74 1023.45 1023.10 1022.73 1022.38 1022.09 1021.88 1021.75 1021.72 1021.76 1021.87 1022.02 1022.18 1022.34 1022.47 1022.56 1022.62 1022.64 1022.64 1022.63 1022.63 1022.64 1022.68 1022.74 1022.83 1022.94 1023.07 1023.19 1023.29 1023.37 1023.43 1023.44 1023.43 1023.38 1023.31 1023.21 1023.11 1023.00 1022.88 1022.75 1022.63 1022.49
1024.69 1024.65 1024.50 1024.27 1023.99 1023.69 1023.41 1023.16 1022.98 1022.86 1022.81 1022.81 1022.86 1022.92 1022.99 1023.04 1023.07 1023.06 1023.02 1022.95 1022.87 1022.79 1022.72 1022.68 1022.67 1022.70 1022.76 1022.85 1022.95 1023.06 1023.16 1023.24 1023.29 1023.30 1023.29 1023.23 1023.16 1023.05 1022.93 1022.80 1022.65 1022.50 1022.33 1022.17
1025.08 1025.07 1024.97 1024.80 1024.58 1024.35 1024.12 1023.93 1023.78 1023.67 1023.61 1023.59 1023.58 1023.59 1023.58 1023.54 1023.48 1023.39 1023.26 1023.12 1022.98 1022.84 1022.73 1022.65 1022.61 1022.60 1022.64 1022.70 1022.79 1022.87 1022.95 1023.02 1023.06 1023.06 1023.04 1022.98 1022.89 1022.77 1022.63 1022.48 1022.31 1022.13 1021.95 1021.77
1025.22 1025.24 1025.18 1025.06 1024.90 1024.72 1024.55 1024.39 1024.27 1024.18 1024.11 1024.07 1024.03 1023.98 1023.91 1023.81 1023.68 1023.53 1023.35 1023.16 1022.98 1022.80 1022.66 1022.55 1022.49 1022.46 1022.47 1022.51 1022.56 1022.62 1022.67 1022.71 1022.72 1022.71 1022.66 1022.58 1022.47 1022.34 1022.19 1022.02 1021.85 1021.67 1021.49 1021.31
1025.18 1025.22 1025.19 1025.10 1024.99 1024.85 1024.72 1024.60 1024.49 1024.41 1024.34 1024.27 1024.20 1024.12 1024.00 1023.86 1023.70 1023.50 1023.29 1023.08 1022.87 1022.69 1022.53 1022.41 1022.32 1022.27 1022.25 1022.26 1022.28 1022.30 1022.31 1022.30 1022.27 1022.22 1022.14 1022.03 1021.90 1021.76 1021.61 1021.44 1021.28 1021.12 1020.96 1020.81
1025.04 1025.08 1025.07 1025.01 1024.92 1024.82 1024.71 1024.60 1024.51 1024.42 1024.34 1024.26 1024.16 1024.04 1023.90 1023.74 1023.54 1023.33 1023.12 1022.90 1022.69 1022.50 1022.34 1022.21 1022.11 1022.04 1021.99 1021.96 1021.93 1021.90 1021.86 1021.80 1021.72 1021.62 1021.50 1021.37 1021.22 1021.07 1020.93 1020.78 1020.64 1020.51 1020.40 1020.29
1024.84 1024.89 1024.89 1024.84 1024.77 1024.67 1024.58 1024.48 1024.38 1024.29 1024.19 1024.08 1023.96 1023.82 1023.65 1023.47 1023.27 1023.05 1022.84 1022.63 1022.43 1022.25 1022.09 1021.96 1021.85 1021.76 1021.68 1021.60 1021.52 1021.43 1021.33 1021.22 1021.08 1020.94 1020.79 1020.63 1020.48 1020.34 1020.21 1020.09 1019.99 1019.91 1019.84 1019.78
1024.63 1024.67 1024.67 1024.62 1024.56 1024.47 1024.37 1024.27 1024.16 1024.05 1023.93 1023.79 1023.65 1023.48 1023.30 1023.11 1022.90 1022.69 1022.48 1022.28 1022.10 1021.93 1021.78 1021.65 1021.53 1021.42 1021.30 1021.19 1021.06 1020.92 1020.76 1020.59 1020.42 1020.24 1020.06 1019.89 1019.75 1019.62 1019.51 1019.44 1019.38 1019.35 1019.33 1019.31
1024.37 1024.40 1024.40 1024.36 1024.29 1024.20 1024.10 1023.99 1023.86 1023.73 1023.58 1023.43 1023.25 1023.06 1022.87 1022.66 1022.45 1022.25 1022.05 1021.86 1021.69 1021.54 1021.40 1021.26 1021.14 1021.01 1020.87 1020.72 1020.55 1020.37 1020.17 1019.97 1019.76 1019.56 1019.37 1019.21 1019.07 1018.97 1018.90 1018.86 1018.84 1018.84 1018.86 1018.88
1024.03 1024.05 1024.04 1024.00 1023.93 1023.84 1023.74 1023.62 1023.48 1023.33 1023.16 1022.98 1022.78 1022.58 1022.36 1022.14 1021.93 1021.73 1021.53 1021.36 1021.20 1021.06 1020.93 1020.80 1020.67 1020.53 1020.38 1020.21 1020.02 1019.81 1019.59 1019.37 1019.15 1018.95 1018.76 1018.61 1018.49 1018.41 1018.37 1018.36 1018.37 1018.39 1018.42 1018.44
Thickness
5430 5442 5444 5443 5446 5452 5452 5456 5457 5464 5462 5467 5469 5469 5471 5474 5477 5478 5480 5482 5484 5484 5486 5488 5490 5493 5496 5498 5500 5503 5504 5505 5506 5507 5509 5510 5511 5511 5511 5511 5511 5511 5510 5509
5421 5435 5439 5436 5440 5445 5448 5451 5449 5449 5449 5456 5459 5459 5459 5461 5464 5464 5466 5469 5471 5473 5474 5475 5477 5480 5482 5484 5486 5488 5490 5492 5493 5494 5495 5497 5498 5498 5498 5498 5499 5499 5498 5497
5411 5424 5425 5416 5421 5430 5435 5438 5440 5439 5439 5444 5444 5446 5446 5448 5450 5452 5454 5456 5457 5459 5460 5462 5464 5467 5468 5470 5473 5474 5476 5478 5479 5480 5481 5483 5485 5485 5486 5486 5486 5486 5486 5485
5398 5404 5398 5404 5418 5424 5425 5425 5428 5429 5430 5431 5431 5433 5434 5435 5436 5438 5441 5442 5444 5445 5447 5449 5451 5454 5456 5457 5459 5460 5462 5464 5465 5466 5467 5468 5470 5472 5472 5473 5474 5474 5473 5473
5388 5389 5392 5399 5402 5403 5406 5407 5410 5414 5415 5417 5419 5420 5420 5424 5425 5426 5427 5429 5431 5432 5434 5436 5438 5440 5442 5443 5444 5446 5448 5449 5451 5452 5453 5455 5456 5457 5459 5460 5461 5461 5461 5461
5383 5384 5382 5382 5389 5392 5395 5392 5397 5403 5404 5406 5409 5405 5406 5410 5412 5414 5416 5417 5419 5420 5421 5423 5425 5427 5428 5429 5430 5432 5433 5435 5437 5439 5440 5442 5443 5444 5446 5447 5449 5449 5450 5449
5372 5369 5366 5367 5377 5385 5380 5377 5386 5392 5394 5395 5396 5396 5396 5398 5400 5402 5404 5405 5406 5407 5408 5409 5411 5413 5414 5415 5416 5418 5420 5422 5424 5425 5427 5428 5430 5432 5433 5435 5436 5438 5439 5439
5358 5358 5354 5360 5366 5363 5363 5373 5378 5380 5381 5381 5383 5385 5387 5388 5388 5389 5391 5392 5394 5394 5395 5396 5398 5400 5401 5402 5404 5405 5408 5409 5411 5412 5414 5417 5418 5419 5421 5422 5424 5426 5427 5428
5341 5344 5348 5352 5352 5355 5358 5361 5365 5367 5369 5370 5371 5373 5375 5375 5376 5377 5378 5379 5381 5382 5382 5384 5386 5387 5388 5389 5391 5393 5395 5396 5398 5400 5402 5404 5406 5408 5410 5411 5412 5414 5415 5416
5338 5341 5344 5346 5347 5349 5351 5353 5356 5357 5358 5359 5359 5361 5362 5363 5363 5364 5366 5367 5368 5369 5370 5371 5372 5374 5375 5377 5379 5381 5382 5383 5385 5387 5390 5392 5394 5396 5398 5399 5401 5402 5403 5404
5331 5334 5337 5339 5339 5341 5343 5345 5346 5347 5348 5349 5349 5350 5351 5351 5352 5353 5354 5355 5356 5357 5358 5359 5360 5361 5363 5365 5367 5368 5370 5371 5373 5376 5378 5380 5382 5384 5386 5388 5389 5390 5391 5392
5324 5327 5326 5328 5332 5334 5334 5335 5336 5337 5338 5339 5340 5340 5340 5340 5341 5342 5342 5344 5345 5346 5347 5348 5349 5350 5352 5353 5355 5357 5358 5360 5362 5364 5366 5368 5370 5372 5375 5377 5379 5380 5381 5382
5320 5322 5322 5324 5325 5326 5326 5327 5328 5329 5330 5330 5331 5331 5331 5330 5331 5331 5333 5333 5334 5335 5336 5337 5338 5340 5341 5343 5345 5346 5348 5349 5351 5353 5355 5358 5360 5361 5363 5366 5367 5369 5370 5371
5315 5315 5315 5316 5315 5317 5318 5318 5319 5320 5320 5321 5321 5321 5321 5321 5321 5322 5323 5323 5324 5325 5326 5327 5329 5330 5332 5334 5335 5337 5338 5340 5342 5344 5345 5347 5349 5350 5352 5354 5356 5357 5359 5359
5307 5308 5307 5308 5309 5310 5310 5310 5309 5309 5310 5311 5311 5311 5311 5311 5311 5312 5313 5314 5315 5316 5316 5317 5319 5320 5322 5324 5326 5328 5329 5331 5333 5335 5336 5338 5339 5341 5342 5343 5345 5346 5348 5348
5299 5301 5301 5300 5300 5300 5300 5300 5299 5300 5300 5301 5301 5301 5301 5302 5302 5302 5303 5305 5306 5306 5307 5309 5310 5312 5314 5316 5318 5319 5321 5324 5325 5326 5328 5329 5330 5331 5332 5333 5334 5335 5336 5337
5291 5291 5291 5290 5290 5291 5290 5290 5290 5290 5291 5291 5292 5292 5292 5292 5292 5293 5294 5296 5297 5298 5299 5301 5302 5304 5306 5308 5310 5311 5313 5315 5317 5318 5318 5319 5320 5321 5322 5324 5324 5325 5326 5328
5286 5285 5285 5284 5284 5283 5283 5283 5282 5282 5282 5283 5284 5284 5283 5283 5284 5284 5285 5287 5288 5290 5291 5293 5295 5296 5298 5300 5302 5303 5305 5306 5308 5308 5309 5311 5311 5312 5313 5314 5315 5316 5317 5319
5280 5280 5279 5279 5278 5277 5277 5276 5276 5275 5276 5276 5276 5275 5275 5275 5276 5276 5277 5279 5280 5281 5283 5285 5287 5289 5290 5292 5294 5295 5296 5298 5299 5300 5301 5303 5304 5304 5304 5305 5306 5307 5308 5310
5274 5273 5273 5273 5273 5271 5271 5271 5270 5269 5269 5269 5269 5268 5268 5268 5268 5269 5269 5270 5272 5273 5275 5277 5279 5280 5282 5284 5286 5287 5288 5290 5290 5291 5293 5294 5294 5295 5296 5297 5298 5299 5300 5302
5268 5267 5266 5266 5266 5266 5265 5265 5264 5263 5262 5262 5261 5261 5261 5261 5261 5262 5262 5263 5265 5267 5268 5270 5271 5273 5274 5276 5278 5279 5281 5282 5283 5283 5285 5286 5287 5288 5288 5289 5290 5292 5293 5295
5262 5261 5260 5260 5259 5258 5258 5258 5257 5257 5256 5255 5255 5254 5254 5254 5254 5255 5256 5257 5259 5260 5261 5262 5264 5266 5268 5270 5271 5272 5273 5274 5275 5276 5277 5278 5279 5280 5281 5282 5283 5285 5287 5288
5258 5257 5256 5254 5253 5252 5252 5251 5251 5250 5249 5249 5248 5248 5248 5248 5248 5249 5250 5251 5252 5254 5255 5256 5258 5260 5262 5262 5263 5264 5266 5267 5268 5269 5270 5271 5272 5273 5274 5276 5277 5279 5280 5282
5254 5253 5251 5249 5248 5246 5245 5246 5245 5245 5244 5243 5243 5243 5242 5242 5243 5244 5244 5246 5247 5248 5249 5250 5252 5253 5255 5255 5256 5257 5258 5259 5260 5262 5263 5264 5266 5267 5268 5270 5271 5273 5275 5277
5249 5246 5245 5243 5242 5242 5241 5241 5240 5239 5239 5239 5239 5239 5238 5238 5238 5239 5239 5239 5241 5242 5242 5244 5245 5247 5247 5247 5248 5250 5251 5253 5254 5255 5257 5258 5260 5261 5263 5264 5265 5267 5269 5272
5244 5242 5241 5240 5239 5238 5237 5236 5236 5236 5235 5235 5235 5235 5234 5234 5233 5233 5233 5234 5235 5236 5236 5237 5238 5239 5240 5241 5242 5243 5245 5246 5248 5249 5251 5252 5254 5255 5257 5259 5261 5263 5265 5267
5239 5238 5237 5236 5235 5234 5233 5232 5231 5231 5231 5230 5230 5230 5229 5229 5229 5229 5229 5229 5229 5230 5231 5232 5233 5234 5235 5236 5237 5238 5240 5241 5243 5244 5246 5247 5249 5250 5252 5255 5257 5259 5261 5264